User: anonymous   Login
Location: Voyageurs National Park
(48.5020°N, 92.9292°W)
Time: 23:06:09
(UTC-06:00)
Language:

Terra - Orbit

View from above orbital plane
View from above orbital plane
View from above satellite
View from above satellite

Ground track
Ground track

The orbit data is extracted from the following two-line orbital elements,

1 25994U 99068A   17053.80132291 -.00000106  00000-0 -13518-4 0  9994
2 25994  98.2073 130.4260 0001182  82.4909 277.6423 14.57110628914011
Epoch (UTC): 22 February 2017 19:13:54
Eccentricity: 0.0001182
inclination: 98.2073°
perigee height: 701 km
apogee height: 703 km
right ascension of ascending node: 130.4260°
argument of perigee: 82.4909°
revolutions per day: 14.57110628
mean anomaly at epoch: 277.6423°
orbit number at epoch: 91401

The dashed part of the orbit path shows where the satellite is in the earth's shadow,  

DLR